Date String (YYYY-MM-DD hh:mm:ss) UTC,Instrument flags,absolute air pressure of the measurement (hPa),sample flow rate (lpm),inlet stack bypass flow (lpm),air temperature of the measurement (°C),ambient temperature measured by the external sensor (°C),aerosol sample conditioner tube jacket temperature (°C),OPC LED temperature (°C),internal box temperature (°C),relative humidity of the measurement (%),span deviation,mass concentration of particles derived from Lorenz-Mie calculation of OPC scattering (μg/m³),mass concentration of particles derived from Lorenz-Mie calculation of OPC scattering (μg/m³),mass concentration of particles derived from Lorenz-Mie calculation of OPC scattering (μg/m³)
DateTimeUTC,F1_M11,P_M11,Q1_M11,Q2_M11,T1_M11,T2_M11,T3_M11,T4_M11,T5_M11,U1_M11,ZSPAN_M11,X0_M11,X2_M11,X1_M11
2023-08-22 16:00:00,SystemResetWarning,0836.8,5.02,000.00,027.6,024.5,000.0,035.8,029.0,27.5,0002.3,0021.63,0008.32,0006.69
2023-08-22 16:01:00,SystemResetWarning,0836.8,4.99,000.00,027.6,024.8,000.0,035.8,029.0,28.2,0002.3,0021.06,0008.20,0006.68
2023-08-22 16:02:00,SystemResetWarning,0836.8,5.00,000.00,027.6,025.2,000.0,035.8,029.2,27.7,0002.0,0020.18,0008.18,0006.68
2023-08-22 16:03:00,SystemResetWarning,0836.8,5.01,000.00,027.7,025.7,000.0,035.9,029.4,26.9,0001.9,0019.82,0008.15,0006.68
2023-08-22 16:04:00,SystemResetWarning,0836.8,4.99,000.00,027.7,025.8,000.0,035.9,029.4,27.4,0001.4,0019.91,0008.18,0006.69
2023-08-22 16:05:00,SystemResetWarning,0836.8,4.98,000.00,027.7,024.8,000.0,035.8,029.1,27.9,0001.5,0019.73,0008.23,0006.69
2023-08-22 16:06:00,SystemResetWarning,0836.8,5.02,000.00,027.6,024.4,000.0,035.8,029.0,27.9,0001.7,0019.49,0008.23,0006.69
2023-08-22 16:07:00,SystemResetWarning,0836.8,5.01,000.00,027.6,024.7,000.0,035.7,029.1,27.6,0001.2,0018.52,0008.24,0006.69
2023-08-22 16:08:00,SystemResetWarning,0836.8,5.00,000.00,027.6,025.1,000.0,035.8,029.2,26.3,0001.1,0018.99,0008.24,0006.70
2023-08-22 16:09:00,SystemResetWarning,0836.8,5.00,000.00,027.7,025.5,000.0,035.8,029.4,25.4,0001.1,0018.92,0008.22,0006.69
2023-08-22 16:10:00,SystemResetWarning,0836.8,5.00,000.00,027.7,025.9,000.0,035.9,029.5,26.1,0000.5,0018.63,0008.24,0006.68
2023-08-22 16:11:00,SystemResetWarning,0836.8,4.99,000.00,027.7,025.2,000.0,035.9,029.5,27.0,0000.3,0017.88,0008.20,0006.67
2023-08-22 16:12:00,SystemResetWarning,0836.8,4.99,000.00,027.7,024.1,000.0,035.8,029.4,26.9,0000.4,0018.02,0008.24,0006.68
2023-08-22 16:13:00,SystemResetWarning,0836.8,5.01,000.00,027.6,023.8,000.0,035.8,029.4,27.6,0000.7,0018.06,0008.27,0006.70
2023-08-22 16:14:00,SystemResetWarning,0836.8,5.01,000.00,027.6,024.2,000.0,035.8,029.4,27.8,0001.0,0018.73,0008.31,0006.70
2023-08-22 16:15:00,SystemResetWarning,0836.8,5.00,000.00,027.6,024.6,000.0,035.8,029.4,27.9,0001.1,0019.03,0008.32,0006.70
2023-08-22 16:16:00,SystemResetWarning,0836.8,5.00,000.00,027.6,025.1,000.0,035.8,029.5,27.7,0001.1,0018.76,0008.31,0006.71
2023-08-22 16:17:00,SystemResetWarning,0836.8,5.00,000.00,027.7,025.6,000.0,035.8,029.5,28.0,0001.2,0018.52,0008.34,0006.73
2023-08-22 16:18:00,SystemResetWarning,0836.8,4.99,000.00,027.7,025.6,000.0,035.8,029.5,28.1,0001.2,0019.33,0008.31,0006.73
2023-08-22 16:19:00,SystemResetWarning,0836.8,4.99,000.00,027.6,024.7,000.0,035.8,029.3,28.4,0001.1,0017.90,0008.23,0006.73
2023-08-22 16:20:00,SystemResetWarning,0836.8,5.01,000.00,027.6,024.4,000.0,035.7,029.2,28.4,0001.0,0019.22,0008.25,0006.75
2023-08-22 16:21:00,SystemResetWarning,0836.8,5.01,000.00,027.6,024.8,000.0,035.7,029.2,28.4,0001.1,0018.84,0008.20,0006.75
2023-08-22 16:22:00,SystemResetWarning,0836.8,5.00,000.00,027.6,025.1,000.0,035.8,029.2,27.6,0001.1,0018.85,0008.18,0006.76
2023-08-22 16:23:00,SystemResetWarning,0836.8,5.01,000.00,027.6,025.6,000.0,035.8,029.4,27.3,0001.3,0018.85,0008.21,0006.77
2023-08-22 16:24:00,SystemResetWarning,0836.7,4.99,000.00,027.7,025.4,000.0,035.8,029.3,27.1,0001.4,0019.34,0008.21,0006.77
2023-08-22 16:25:00,SystemResetWarning,0836.8,4.99,000.00,027.6,024.5,000.0,035.7,029.1,27.4,0001.5,0019.42,0008.22,0006.78
2023-08-22 16:26:00,SystemResetWarning,0836.8,5.01,000.00,027.6,024.4,000.0,035.7,029.1,26.5,0001.5,0019.69,0008.27,0006.79
2023-08-22 16:27:00,SystemResetWarning,0836.8,5.01,000.00,027.6,024.7,000.0,035.7,029.1,27.4,0001.7,0019.80,0008.27,0006.78
2023-08-22 16:28:00,SystemResetWarning,0836.8,5.00,000.00,027.6,025.1,000.0,035.8,029.2,26.7,0001.6,0020.88,0008.30,0006.78
2023-08-22 16:29:00,SystemResetWarning,0836.8,5.00,000.00,027.6,025.6,000.0,035.8,029.3,24.6,0001.6,0020.25,0008.32,0006.80
2023-08-22 16:30:00,SystemResetWarning,0836.8,5.00,000.00,027.7,025.8,000.0,035.8,029.4,24.5,0001.6,0020.54,0008.36,0006.80
2023-08-22 16:31:00,SystemResetWarning,0836.8,4.98,000.00,027.6,025.0,000.0,035.7,029.2,24.4,0001.7,0019.83,0008.36,0006.82
2023-08-22 16:32:00,SystemResetWarning,0836.8,5.01,000.00,027.5,023.8,000.0,035.7,028.7,26.3,0001.3,0020.34,0008.39,0006.84
2023-08-22 16:33:00,SystemResetWarning,0836.8,5.00,000.00,027.4,023.2,000.0,035.6,028.6,26.1,0001.9,0019.87,0008.39,0006.85
2023-08-22 16:34:00,SystemResetWarning,0836.7,5.01,000.00,027.3,023.5,000.0,035.5,028.6,25.1,0002.2,0019.44,0008.38,0006.87
2023-08-22 16:35:00,SystemResetWarning,0836.7,5.01,000.00,027.3,024.0,000.0,035.6,028.7,25.0,0002.1,0019.51,0008.44,0006.90
2023-08-22 16:36:00,SystemResetWarning,0836.7,5.00,000.00,027.3,024.6,000.0,035.6,028.9,24.3,0001.8,0020.20,0008.49,0006.91
2023-08-22 16:37:00,SystemResetWarning,0836.7,5.00,000.00,027.3,025.1,000.0,035.6,029.0,23.9,0001.7,0019.58,0008.47,0006.91
2023-08-22 16:38:00,SystemResetWarning,0836.7,5.01,000.00,027.4,025.6,000.0,035.7,029.2,25.0,0001.7,0020.22,0008.52,0006.94
2023-08-22 16:39:00,SystemResetWarning,0836.8,4.99,000.00,027.5,025.9,000.0,035.7,029.3,26.1,0001.8,0019.92,0008.51,0006.94
2023-08-22 16:40:00,SystemResetWarning,0836.8,4.99,000.00,027.5,025.0,000.0,035.6,029.0,25.5,0001.7,0019.97,0008.53,0006.95
2023-08-22 16:41:00,SystemResetWarning,0836.8,5.01,000.00,027.4,024.3,000.0,035.5,028.9,26.3,0001.7,0019.76,0008.60,0006.97
2023-08-22 16:42:00,SystemResetWarning,0836.7,5.00,000.00,027.4,024.5,000.0,035.5,028.9,26.2,0001.8,0019.40,0008.62,0006.97
2023-08-22 16:43:00,SystemResetWarning,0836.7,5.01,000.00,027.4,024.9,000.0,035.6,029.0,26.7,0002.1,0019.13,0008.65,0006.97
2023-08-22 16:44:00,SystemResetWarning,0836.8,5.00,000.00,027.4,025.4,000.0,035.6,029.1,26.7,0001.9,0020.16,0008.71,0006.99
2023-08-22 16:45:00,SystemResetWarning,0836.8,5.01,000.00,027.5,025.8,000.0,035.7,029.3,26.5,0001.2,0020.65,0008.81,0007.00
2023-08-22 16:46:00,SystemResetWarning,0836.8,4.99,000.00,027.5,025.3,000.0,035.6,029.2,26.5,0001.2,0020.64,0008.87,0007.02
2023-08-22 16:47:00,SystemResetWarning,0836.8,4.99,000.00,027.4,024.3,000.0,035.5,028.9,26.1,0001.4,0020.26,0008.89,0007.03
2023-08-22 16:48:00,SystemResetWarning,0836.8,5.01,000.00,027.4,024.2,000.0,035.5,028.9,25.8,0001.3,0019.99,0008.90,0007.04
2023-08-22 16:49:00,SystemResetWarning,0836.7,5.01,000.00,027.4,024.6,000.0,035.5,028.9,26.4,0000.9,0019.77,0008.89,0007.03
2023-08-22 16:50:00,SystemResetWarning,0836.7,4.99,000.00,027.4,025.0,000.0,035.6,029.1,26.6,0000.9,0019.06,0008.88,0007.04
2023-08-22 16:51:00,SystemResetWarning,0836.8,5.01,000.00,027.4,025.5,000.0,035.6,029.2,26.5,0000.8,0019.51,0008.89,0007.05
2023-08-22 16:52:00,SystemResetWarning,0836.8,4.99,000.00,027.5,025.7,000.0,035.6,029.2,26.9,0000.9,0020.25,0008.93,0007.06
2023-08-22 16:53:00,SystemResetWarning,0836.8,4.98,000.00,027.4,024.6,000.0,035.5,029.0,27.3,0000.9,0022.01,0008.99,0007.07
2023-08-22 16:54:00,SystemResetWarning,0836.8,5.02,000.00,027.4,024.1,000.0,035.5,028.8,27.4,0000.8,0022.11,0009.00,0007.08
2023-08-22 16:55:00,SystemResetWarning,0836.8,5.00,000.00,027.3,024.4,000.0,035.5,028.9,26.6,0000.5,0021.36,0009.02,0007.10
2023-08-22 16:56:00,SystemResetWarning,0836.8,5.00,000.00,027.3,024.8,000.0,035.6,029.0,25.9,0000.8,0020.99,0009.00,0007.09
2023-08-22 16:57:00,SystemResetWarning,0836.8,5.00,000.00,027.4,025.3,000.0,035.6,029.1,25.6,0000.8,0021.30,0008.96,0007.09
2023-08-22 16:58:00,SystemResetWarning,0836.8,5.00,000.00,027.4,025.7,000.0,035.6,029.2,25.1,0000.6,0022.51,0008.91,0007.08
2023-08-22 16:59:00,SystemResetWarning,0836.8,4.99,000.00,027.5,025.6,000.0,035.6,029.2,24.8,0000.9,0022.31,0008.86,0007.09
